{"data":{"norad_id":49456,"intl_designator":"2021-104BA","name":"STARLINK-3124","alt_names":[],"object_type":"PAYLOAD","status":"ACTIVE","operator":null,"country":"US","launch_date":"2021-11-13","launch_site_code":"AFETR","launch_vehicle":null,"mission":null,"orbit_class":"UNKNOWN","rcs_meters":null,"size_class":null,"mass_kg":null,"dimensions":null,"purposes":["comms"],"wikipedia_slug":null,"has_3d_model":false,"image_url":null,"decayed_at":null,"tle_current":{"epoch":"2026-05-24T23:33:55.237248Z","epoch_age_seconds":87346,"freshness":"FRESH","line1":"1 49456U 21104BA  26144.98188932  .00000629  00000+0  57572-4 0  9997","line2":"2 49456  53.2152 236.6801 0001037  87.1409 272.9702 15.08839548250292","mean_motion":15.08839548,"eccentricity":0.0001037,"inclination_deg":53.2152,"raan_deg":236.6801,"arg_perigee_deg":87.1409,"mean_anomaly_deg":272.9702,"bstar":5.7572e-5,"rev_number":25029,"period_min":95.4375832678,"perigee_km":539.02738620802,"apogee_km":540.46215488723,"semimajor_km":6917.8817705476,"source":"CELESTRAK","updated_at":"2026-05-25T13:38:16.828878Z"}}}